Colby, KS

8:31 PM CST on November 22, 2019 (GMT -0600)
Shaltz

Weather History for KCBK - September, 2019

Change the Weather History Date:

Saturday, September 28, 2019

  Actual Average (KGLD) Record (KGLD)
Temperature  
Mean Temperature 50 °F 59 °F  
Max Temperature 53 °F 74 °F 97 °F (1953)
Min Temperature 46 °F 44 °F 26 °F (1985)
Degree Days  
Heating Degree Days 16 7  
Month to date heating degree days 97  
Since 1 July heating degree days 109  
Cooling Degree Days 0 1  
Month to date cooling degree days 99  
Year to date cooling degree days 932  
Moisture  
Dew Point 48 °F    
Average Humidity 90    
Maximum Humidity 100    
Minimum Humidity 71    
Precipitation  
Precipitation 0.00 in 0.04 in 1.21 in (1936)
Month to date precipitation 1.14  
Year to date precipitation 17.04  
Snow  
Snow 0.00 in 0.00 in - ()
Month to date snowfall 0.3  
Since 1 July snowfall 0.3  
Since 1 September snowfall 0.3  
Snow Depth -    
Sea Level Pressure  
Sea Level Pressure 29.99 in    
Wind  
Wind Speed 10 mph (East)    
Max Wind Speed 17 mph    
Max Gust Speed 23 mph    
Visibility 7 miles    
Events      
T = Trace of Precipitation, MM = Missing Value Source: NWS Daily Summary

Daily Weather History Graph

Daily Weather History Graph

Search for Another Location

Airport or City:

Astronomy

Sep. 28, 2019 Rise Set
Actual Time 7:37 AM CDT 7:31 PM CDT
Civil Twilight 7:10 AM CDT 7:58 PM CDT
Nautical Twilight 6:39 AM CDT 8:29 PM CDT
Astronomical Twilight 6:07 AM CDT 9:01 PM CDT
Moon 7:16 AM CDT (9/28) 7:58 PM CDT (9/28)
Length of Visible Light 12h 48m
Length of Day
11h 54m
Waning Crescent, 0% of the Moon is Illuminated
Sep 28
Waning Crescent
Sep 28
New
Oct 5
First Quarter
Oct 13
Full
Oct 21
Last Quarter

Hourly Weather History & Observations

Time (CDT) Temp. Windchill Dew Point Humidity Pressure Visibility Wind Dir Wind Speed Gust Speed Precip Events Conditions
12:15 AM 51.8 °F - 42.8 °F 71% 29.98 in 10.0 mi NE 11.5 mph 17.3 mph N/A   Clear
12:35 AM 51.8 °F - 42.8 °F 71% 29.98 in 10.0 mi ENE 17.3 mph 20.7 mph N/A   Clear
12:55 AM 51.8 °F - 42.8 °F 71% 29.98 in 10.0 mi ENE 13.8 mph - N/A   Clear
1:15 AM 51.8 °F - 44.6 °F 76% 29.98 in 10.0 mi ENE 13.8 mph 23.0 mph N/A   Clear
1:35 AM 51.8 °F - 44.6 °F 76% 29.98 in 10.0 mi ENE 11.5 mph - N/A   Clear
1:55 AM 51.8 °F - 44.6 °F 76% 29.97 in 10.0 mi ENE 11.5 mph - N/A   Clear
2:15 AM 51.8 °F - 44.6 °F 76% 29.98 in 10.0 mi NE 10.4 mph - N/A   Clear
2:35 AM 51.8 °F - 44.6 °F 76% 29.99 in 10.0 mi NE 9.2 mph - N/A   Clear
2:55 AM 50.0 °F - 44.6 °F 82% 29.99 in 10.0 mi NE 9.2 mph - N/A   Scattered Clouds
3:15 AM 50.0 °F - 44.6 °F 82% 29.98 in 10.0 mi NE 12.7 mph 16.1 mph N/A   Scattered Clouds
3:35 AM 50.0 °F - 44.6 °F 82% 29.98 in 10.0 mi NE 9.2 mph - N/A   Clear
3:55 AM 48.2 °F - 44.6 °F 87% 29.99 in 10.0 mi ENE 10.4 mph - N/A   Clear
4:15 AM 48.2 °F - 44.6 °F 87% 29.99 in 10.0 mi ENE 8.1 mph - N/A   Mostly Cloudy
4:35 AM 50.0 °F - 42.8 °F 76% 29.99 in 10.0 mi NE 10.4 mph - N/A   Overcast
4:55 AM 46.4 °F 41.5 °F 42.8 °F 87% 29.98 in 10.0 mi NE 10.4 mph - N/A   Mostly Cloudy
5:15 AM 46.4 °F 41.9 °F 42.8 °F 87% 29.98 in 10.0 mi NE 9.2 mph - N/A   Scattered Clouds
5:35 AM 46.4 °F 42.9 °F 42.8 °F 87% 30.00 in 10.0 mi NE 6.9 mph - N/A   Scattered Clouds
5:55 AM 46.4 °F 42.9 °F 44.6 °F 93% 30.02 in 10.0 mi NNE 6.9 mph - N/A   Mostly Cloudy
6:15 AM 48.2 °F - 44.6 °F 87% 30.02 in 10.0 mi NNE 6.9 mph - N/A   Overcast
6:35 AM 48.2 °F - 44.6 °F 87% 30.02 in 10.0 mi NE 8.1 mph - N/A   Overcast
6:55 AM 48.2 °F - 44.6 °F 87% 30.02 in 10.0 mi NE 10.4 mph - N/A   Overcast
7:15 AM 46.4 °F 41.1 °F 44.6 °F 93% 30.03 in 10.0 mi NE 11.5 mph - N/A   Overcast
7:35 AM 48.2 °F - 44.6 °F 87% 30.04 in 10.0 mi NE 9.2 mph - N/A   Overcast
7:55 AM 48.2 °F - 44.6 °F 87% 30.05 in 10.0 mi ENE 12.7 mph 17.3 mph N/A   Overcast
8:15 AM 48.2 °F - 44.6 °F 87% 30.06 in 10.0 mi East 12.7 mph 18.4 mph N/A   Overcast
8:35 AM 48.2 °F - 44.6 °F 87% 30.05 in 10.0 mi ENE 15.0 mph - N/A   Overcast
8:55 AM 48.2 °F - 44.6 °F 87% 30.07 in 10.0 mi ENE 9.2 mph - N/A   Overcast
9:15 AM 48.2 °F - 44.6 °F 87% 30.06 in 10.0 mi ENE 10.4 mph - N/A   Overcast
9:35 AM 50.0 °F - 44.6 °F 82% 30.06 in 10.0 mi East 10.4 mph - N/A   Overcast
9:55 AM 50.0 °F - 44.6 °F 82% 30.07 in 10.0 mi East 11.5 mph - N/A   Overcast
10:15 AM 50.0 °F - 44.6 °F 82% 30.06 in 10.0 mi ENE 10.4 mph - N/A   Overcast
10:35 AM 50.0 °F - 44.6 °F 82% 30.06 in 10.0 mi ENE 8.1 mph - N/A   Overcast
10:55 AM 50.0 °F - 44.6 °F 82% 30.07 in 10.0 mi ENE 6.9 mph - N/A   Overcast
11:15 AM 50.0 °F - 44.6 °F 82% 30.07 in 10.0 mi ENE 5.8 mph - N/A   Overcast
11:35 AM 50.0 °F - 46.4 °F 87% 30.07 in 3.0 mi East 5.8 mph - N/A   Overcast
11:55 AM 50.0 °F - 50.0 °F 100% 30.07 in 3.0 mi East 5.8 mph - N/A   Overcast
12:15 PM 50.0 °F - 50.0 °F 100% 30.06 in 1.2 mi East 5.8 mph - N/A   Overcast
12:35 PM 50.0 °F - 50.0 °F 100% 30.04 in 1.5 mi East 6.9 mph - N/A   Overcast
12:55 PM 50.0 °F - 50.0 °F 100% 30.04 in 4.0 mi East 8.1 mph - N/A   Overcast
1:15 PM 50.0 °F - 50.0 °F 100% 30.01 in 4.0 mi ENE 6.9 mph - N/A   Overcast
1:35 PM 51.8 °F - 51.8 °F 100% 30.01 in 10.0 mi East 8.1 mph - N/A   Overcast
2:15 PM 51.8 °F - 50.0 °F 94% 29.98 in 10.0 mi East 5.8 mph - N/A   Overcast
2:35 PM 51.8 °F - 48.2 °F 88% 29.98 in 10.0 mi ESE 4.6 mph - N/A   Overcast
2:55 PM 53.6 °F - 50.0 °F 88% 29.97 in 10.0 mi East 5.8 mph - N/A   Overcast
3:15 PM 53.6 °F - 50.0 °F 88% 29.96 in 10.0 mi ESE 6.9 mph - N/A   Overcast
3:35 PM 53.6 °F - 50.0 °F 88% 29.96 in 10.0 mi East 8.1 mph - N/A   Overcast
3:55 PM 53.6 °F - 50.0 °F 88% 29.96 in 7.0 mi ESE 9.2 mph - N/A   Overcast
4:15 PM 51.8 °F - 50.0 °F 94% 29.96 in 5.0 mi ESE 10.4 mph - N/A   Overcast
4:35 PM 51.8 °F - 51.8 °F 100% 29.95 in 2.5 mi SE 10.4 mph - N/A   Overcast
4:55 PM 51.8 °F - 51.8 °F 100% 29.95 in 3.0 mi SE 8.1 mph - N/A   Overcast
5:15 PM 51.8 °F - 51.8 °F 100% 29.95 in 5.0 mi SE 9.2 mph - N/A   Overcast
5:35 PM 51.8 °F - 51.8 °F 100% 29.95 in 10.0 mi SE 8.1 mph - N/A   Overcast
5:55 PM 53.6 °F - 51.8 °F 94% 29.95 in 10.0 mi SE 6.9 mph - N/A   Overcast
6:15 PM 51.8 °F - 51.8 °F 100% 29.95 in 7.0 mi ESE 8.1 mph - N/A   Overcast
6:55 PM 51.8 °F - 51.8 °F 100% 29.93 in 7.0 mi ESE 11.5 mph - N/A   Overcast
7:15 PM 51.8 °F - 51.8 °F 100% 29.93 in 7.0 mi ESE 10.4 mph - N/A   Overcast
7:35 PM 51.8 °F - 51.8 °F 100% 29.92 in 4.0 mi ESE 10.4 mph - N/A   Overcast
7:55 PM 51.8 °F - 51.8 °F 100% 29.92 in 4.0 mi ESE 10.4 mph - N/A   Overcast
8:15 PM 51.8 °F - 51.8 °F 100% 29.91 in 3.0 mi ESE 13.8 mph - N/A   Overcast
8:35 PM 51.8 °F - 51.8 °F 100% 29.91 in 4.0 mi ESE 12.7 mph - N/A   Overcast
8:55 PM 51.8 °F - 51.8 °F 100% 29.91 in 2.0 mi ESE 9.2 mph - N/A   Overcast
9:15 PM 51.8 °F - 51.8 °F 100% 29.91 in 1.2 mi East 11.5 mph - N/A   Overcast
9:35 PM 51.8 °F - 51.8 °F 100% 29.92 in 1.0 mi ESE 10.4 mph - N/A   Overcast
9:55 PM 51.8 °F - 51.8 °F 100% 29.92 in 0.8 mi ESE 10.4 mph - N/A   Overcast
10:15 PM 53.6 °F - 53.6 °F 100% 29.92 in 1.0 mi ESE 13.8 mph - N/A   Overcast
10:35 PM 51.8 °F - 51.8 °F 100% 29.92 in 0.8 mi ESE 10.4 mph - N/A   Overcast
10:55 PM 53.6 °F - 53.6 °F 100% 29.91 in 0.8 mi ESE 12.7 mph - N/A   Overcast
11:15 PM 53.6 °F - 53.6 °F 100% 29.91 in 0.8 mi ESE 10.4 mph - N/A   Overcast
11:35 PM 53.6 °F - 53.6 °F 100% 29.90 in 0.5 mi ESE 13.8 mph - N/A   Overcast
11:55 PM 53.6 °F - 53.6 °F 100% 29.90 in 0.5 mi ESE 10.4 mph - N/A   Overcast